Location: Cutler
(25.6150°N, 80.3110°W)
Time: 04:52:33
(UTC-04:00)

Vanguard 1 - Pass Details

Date: 31 January 2018
Orbit: 650 x 3833 km, 34.3° (Epoch: 24 May)

Event Time Altitude Azimuth Distance (km) Brightness Sun altitude
Rises 21:07:59 0° 267° (W) 2,977 13.4 -41.4°
Enters shadow 21:10:09 - 274° (W) 2,103 12.4 -41.9°
Reaches altitude 10° 21:10:18 10° 275° (W) 2,041 - -41.9°
Maximum altitude 21:14:30 42° 348° (NNW) 988 - -42.9°
Drops below altitude 10° 21:19:44 10° 59° (ENE) 2,547 - -44.1°
Sets 21:22:59 0° 66° (ENE) 3,833 - -44.8°
